Location: Gleizolles
(44.4833°N, 6.7667°E)
Time: 15:59:02
(UTC+00:00)

Explorer 7 - Pass Details

Date: 17 June 2024
Orbit: 465 x 619 km, 50.3° (Epoch: 12 July)

Event Time Altitude Azimuth Distance (km) Brightness Sun altitude
Rises 10:51:58 0° 191° (S) 2,655 10.6 67.2°
Reaches altitude 10° 10:55:06 10° 165° (SSE) 1,732 9.9 67.5°
Maximum altitude 10:57:08 14° 134° (SE) 1,487 9.6 67.6°
Drops below altitude 10° 10:59:09 10° 102° (ESE) 1,694 9.6 67.7°
Sets 11:02:09 0° 76° (ENE) 2,550 10.3 67.9°
